Location: Mississauga
(43.5802°N, 79.6166°W)
Time: 01:09:47
(UTC-04:00)

Cosmos 1437 Rocket - Visible Passes

Search period start: 24 August 2017 00:00
Search period end: 03 September 2017 00:00
Orbit: 506 x 566 km, 81.2° (Epoch: 23 August)

Date Brightness Start Highest point End Pass type
(mag) Time Alt. Az. Time Alt. Az. Time Alt. Az.
24 Aug 3.9 21:52:28 28° ENE 21:52:28 28° ENE 21:55:16 10° NNE visible
24 Aug 5.1 23:27:52 20° WNW 23:28:07 20° WNW 23:31:07 10° NNW visible
25 Aug 3.7 21:43:26 29° E 21:43:26 29° E 21:46:37 10° NNE visible
25 Aug 5.1 23:18:51 20° W 23:19:29 20° WNW 23:22:28 10° NNW visible
26 Aug 3.6 21:34:19 29° E 21:34:31 29° E 21:37:58 10° NNE visible
26 Aug 5.1 23:09:43 18° W 23:10:50 20° WNW 23:13:49 10° NNW visible
27 Aug 3.6 21:25:06 27° ESE 21:25:53 29° E 21:29:18 10° NNE visible
27 Aug 5.2 23:00:29 16° WSW 23:02:11 20° WNW 23:05:09 10° NNW visible
28 Aug 3.6 21:15:43 22° SE 21:17:14 29° E 21:20:38 10° NNE visible
28 Aug 5.2 22:51:05 12° WSW 22:53:32 20° WNW 22:56:30 10° NNW visible
29 Aug 3.6 21:06:08 16° SE 21:08:35 29° E 21:11:59 10° NNE visible
29 Aug 5.2 22:41:54 10° WSW 22:44:53 20° WNW 22:47:51 10° NNW visible
30 Aug 3.6 20:56:31 10° SSE 20:59:55 29° E 21:03:19 10° NNE visible
30 Aug 5.3 22:33:15 10° WSW 22:36:14 20° WNW 22:39:11 10° NNW visible
31 Aug 3.6 20:47:53 10° SSE 20:51:17 28° E 20:54:38 10° NNE visible
31 Aug 5.3 22:24:36 10° WSW 22:27:34 20° WNW 22:30:31 10° NNW visible
01 Sep 3.6 20:39:15 10° SSE 20:42:38 28° E 20:45:58 10° NNE visible
01 Sep 5.3 22:15:57 10° WSW 22:18:55 20° WNW 22:21:51 10° NNW visible
02 Sep 3.6 20:30:36 10° SSE 20:33:58 28° E 20:37:18 10° NNE visible
02 Sep 5.4 22:07:18 10° WSW 22:10:15 20° WNW 22:13:12 10° NNW visible
